Location: Altenst�hlen
(53.5567°N, 8.9425°E)
Time: 09:55:11
(UTC+00:00)

STARLINK-33 - Pass Details

Date: 23 October 2019
Orbit: 548 x 551 km, 53.0° (Epoch: 21 November)

Event Time Altitude Azimuth Distance (km) Brightness Sun altitude
Rises 16:38:23 0° 263° (W) 2,716 9.8 -4.8°
Reaches altitude 10° 16:40:37 10° 263° (W) 1,823 8.2 -5.1°
Maximum altitude 16:44:46 84° 177° (S) 559 3.7 -5.7°
Drops below altitude 10° 16:48:55 10° 89° (E) 1,826 5.6 -6.3°
Enters shadow 16:49:23 - 88° (E) 2,006 5.8 -6.4°
